Location: Shenandoah County Park
(38.9356°N, 78.4524°W)
Time: 04:28:12
(UTC-04:00)

Transit 2A - Pass Details

Date: 22 June 2024
Orbit: 591 x 960 km, 66.7° (Epoch: 23 July)

Event Time Altitude Azimuth Distance (km) Brightness Sun altitude
Rises 23:55:05 0° 341° (NNW) 3,521 10.8 -24.8°
Reaches altitude 10° 23:58:10 10° 357° (N) 2,624 9.7 -25.0°
Maximum altitude 00:02:54 22° 47° (NE) 1,928 8.3 -25.3°
Enters shadow 00:06:39 14° 89° (E) 2,424 8.4 -25.6°
